QPF
0.00 0.00 0.00 0.00 0.00 0.00 0.00 0.01 0.06 0.04 0.07 0.06 0.02 0.00 0.00 0.00 0.00 0.00 0.00 0.00 0.00 0.00 0.00 0.00 0.00 0.00 0.00 0.00 0.00 0.00 0.01 0.01 0.01 0.01 0.01 0.01 0.02 0.02 0.02 0.03 0.03 0.04 0.06 0.07
0.00 0.00 0.00 0.00 0.00 0.00 0.00 0.00 0.00 0.01 0.02 0.01 0.00 0.00 0.00 0.00 0.00 0.00 0.00 0.00 0.00 0.00 0.00 0.00 0.00 0.00 0.00 0.00 0.00 0.00 0.01 0.01 0.01 0.01 0.01 0.01 0.02 0.02 0.02 0.02 0.03 0.04 0.05 0.07
0.00 0.00 0.01 0.03 0.01 0.00 0.00 0.00 0.00 0.00 0.01 0.00 0.00 0.00 0.00 0.00 0.00 0.00 0.00 0.00 0.00 0.00 0.00 0.00 0.00 0.00 0.00 0.00 0.00 0.00 0.00 0.00 0.00 0.01 0.01 0.01 0.00 0.01 0.02 0.02 0.03 0.03 0.05 0.07
0.00 0.00 0.03 0.03 0.00 0.00 0.00 0.00 0.00 0.00 0.00 0.00 0.00 0.00 0.00 0.00 0.00 0.00 0.00 0.00 0.00 0.00 0.00 0.00 0.00 0.00 0.00 0.00 0.00 0.00 0.00 0.00 0.01 0.01 0.01 0.01 0.01 0.02 0.03 0.04 0.04 0.04 0.05 0.07
0.00 0.00 0.02 0.01 0.00 0.00 0.00 0.00 0.00 0.00 0.00 0.00 0.00 0.00 0.00 0.00 0.00 0.00 0.00 0.00 0.00 0.00 0.00 0.00 0.00 0.00 0.00 0.00 0.00 0.00 0.01 0.01 0.01 0.01 0.02 0.02 0.04 0.05 0.06 0.06 0.05 0.04 0.04 0.07
0.00 0.00 0.01 0.01 0.00 0.00 0.00 0.00 0.00 0.00 0.00 0.00 0.00 0.00 0.00 0.00 0.00 0.00 0.00 0.00 0.00 0.00 0.00 0.00 0.00 0.00 0.00 0.01 0.01 0.01 0.01 0.02 0.02 0.02 0.03 0.04 0.05 0.07 0.07 0.08 0.07 0.05 0.05 0.08
0.00 0.00 0.01 0.00 0.00 0.00 0.00 0.00 0.00 0.00 0.00 0.00 0.00 0.00 0.00 0.00 0.00 0.00 0.00 0.00 0.00 0.00 0.00 0.00 0.00 0.00 0.01 0.01 0.02 0.02 0.02 0.02 0.02 0.03 0.05 0.04 0.07 0.10 0.10 0.09 0.09 0.09 0.08 0.10
0.00 0.00 0.02 0.00 0.00 0.00 0.00 0.00 0.00 0.00 0.00 0.00 0.00 0.00 0.00 0.00 0.00 0.00 0.00 0.00 0.00 0.00 0.00 0.00 0.00 0.01 0.02 0.02 0.02 0.02 0.03 0.03 0.04 0.05 0.04 0.03 0.08 0.11 0.11 0.11 0.11 0.10 0.09 0.11
0.00 0.00 0.00 0.00 0.00 0.00 0.00 0.00 0.00 0.00 0.00 0.00 0.00 0.00 0.00 0.00 0.00 0.00 0.00 0.00 0.00 0.00 0.00 0.00 0.01 0.02 0.03 0.03 0.03 0.03 0.04 0.05 0.05 0.05 0.07 0.06 0.07 0.08 0.10 0.11 0.11 0.10 0.11 0.13
0.00 0.00 0.00 0.00 0.00 0.00 0.00 0.00 0.00 0.00 0.00 0.00 0.00 0.00 0.00 0.00 0.00 0.00 0.00 0.00 0.00 0.00 0.01 0.01 0.01 0.02 0.03 0.03 0.04 0.05 0.05 0.05 0.06 0.06 0.07 0.07 0.09 0.09 0.09 0.09 0.10 0.11 0.12 0.14
0.00 0.00 0.00 0.00 0.00 0.00 0.00 0.00 0.00 0.00 0.00 0.00 0.00 0.00 0.00 0.00 0.00 0.00 0.00 0.00 0.00 0.01 0.02 0.02 0.02 0.03 0.03 0.03 0.05 0.06 0.06 0.06 0.06 0.06 0.07 0.07 0.07 0.07 0.07 0.08 0.08 0.08 0.10 0.12
0.00 0.00 0.00 0.00 0.00 0.00 0.00 0.00 0.00 0.00 0.00 0.00 0.00 0.00 0.00 0.00 0.00 0.00 0.00 0.01 0.02 0.02 0.03 0.03 0.03 0.03 0.03 0.03 0.06 0.08 0.08 0.07 0.07 0.07 0.06 0.06 0.06 0.06 0.04 0.02 0.01 0.01 0.02 0.04
0.00 0.00 0.00 0.00 0.00 0.00 0.00 0.00 0.00 0.00 0.00 0.00 0.00 0.00 0.00 0.00 0.00 0.01 0.01 0.02 0.03 0.04 0.04 0.04 0.04 0.04 0.04 0.05 0.08 0.09 0.10 0.09 0.09 0.08 0.07 0.06 0.06 0.06 0.07 0.06 0.02 0.00 0.01 0.01
0.00 0.00 0.00 0.00 0.00 0.00 0.00 0.00 0.00 0.00 0.00 0.00 0.00 0.00 0.00 0.00 0.01 0.01 0.03 0.04 0.05 0.06 0.05 0.06 0.07 0.06 0.05 0.08 0.10 0.10 0.10 0.10 0.09 0.09 0.08 0.07 0.07 0.07 0.08 0.10 0.09 0.05 0.03 0.02
0.00 0.00 0.00 0.00 0.00 0.00 0.00 0.00 0.00 0.00 0.00 0.00 0.00 0.00 0.00 0.01 0.02 0.03 0.05 0.07 0.08 0.08 0.07 0.09 0.10 0.09 0.09 0.11 0.11 0.11 0.12 0.11 0.11 0.11 0.10 0.08 0.07 0.07 0.08 0.10 0.10 0.11 0.10 0.06
0.00 0.00 0.00 0.00 0.00 0.00 0.00 0.00 0.00 0.00 0.00 0.00 0.00 0.00 0.01 0.02 0.03 0.04 0.06 0.09 0.12 0.12 0.12 0.13 0.14 0.12 0.12 0.13 0.14 0.14 0.13 0.10 0.08 0.10 0.10 0.08 0.07 0.07 0.09 0.10 0.10 0.11 0.12 0.10
0.00 0.00 0.00 0.00 0.00 0.00 0.00 0.00 0.00 0.00 0.00 0.00 0.00 0.00 0.01 0.03 0.05 0.07 0.08 0.09 0.11 0.12 0.14 0.17 0.16 0.13 0.14 0.16 0.17 0.18 0.16 0.13 0.07 0.06 0.08 0.07 0.07 0.08 0.11 0.11 0.11 0.12 0.11 0.09
0.00 0.00 0.00 0.00 0.00 0.00 0.00 0.00 0.00 0.00 0.00 0.00 0.00 0.01 0.03 0.05 0.09 0.13 0.13 0.12 0.12 0.10 0.11 0.15 0.14 0.13 0.15 0.16 0.16 0.17 0.16 0.14 0.12 0.09 0.08 0.08 0.08 0.10 0.11 0.12 0.12 0.12 0.11 0.07
0.00 0.00 0.00 0.00 0.00 0.00 0.00 0.00 0.00 0.00 0.00 0.00 0.01 0.02 0.03 0.05 0.11 0.15 0.14 0.14 0.15 0.13 0.12 0.11 0.10 0.12 0.15 0.14 0.10 0.15 0.14 0.12 0.10 0.08 0.08 0.07 0.06 0.09 0.11 0.12 0.12 0.12 0.10 0.06
0.00 0.00 0.00 0.00 0.00 0.00 0.00 0.00 0.00 0.00 0.00 0.00 0.01 0.02 0.03 0.05 0.11 0.15 0.13 0.12 0.13 0.14 0.12 0.08 0.09 0.13 0.13 0.10 0.07 0.11 0.11 0.10 0.09 0.08 0.08 0.08 0.08 0.10 0.11 0.10 0.11 0.11 0.08 0.04
0.00 0.00 0.00 0.00 0.00 0.00 0.00 0.00 0.00 0.00 0.00 0.00 0.01 0.02 0.04 0.05 0.09 0.13 0.14 0.12 0.10 0.08 0.08 0.07 0.08 0.09 0.08 0.07 0.07 0.10 0.09 0.07 0.08 0.08 0.08 0.08 0.09 0.11 0.10 0.09 0.10 0.09 0.06 0.03
0.00 0.00 0.00 0.00 0.00 0.00 0.00 0.00 0.00 0.00 0.00 0.00 0.01 0.01 0.03 0.05 0.08 0.09 0.10 0.11 0.09 0.06 0.07 0.08 0.08 0.05 0.04 0.05 0.08 0.10 0.10 0.08 0.09 0.09 0.10 0.10 0.12 0.12 0.10 0.10 0.09 0.07 0.04 0.02
0.00 0.00 0.00 0.00 0.00 0.00 0.00 0.00 0.00 0.00 0.00 0.00 0.01 0.01 0.03 0.05 0.08 0.11 0.10 0.09 0.07 0.05 0.06 0.06 0.05 0.04 0.05 0.07 0.09 0.09 0.09 0.10 0.12 0.13 0.13 0.11 0.10 0.10 0.10 0.08 0.06 0.04 0.03 0.02
0.00 0.00 0.00 0.00 0.00 0.00 0.00 0.00 0.00 0.00 0.00 0.00 0.00 0.01 0.02 0.04 0.05 0.06 0.07 0.08 0.06 0.04 0.05 0.04 0.03 0.03 0.05 0.08 0.10 0.10 0.09 0.10 0.10 0.10 0.10 0.09 0.08 0.08 0.06 0.05 0.04 0.03 0.03 0.02
0.00 0.00 0.00 0.00 0.00 0.00 0.00 0.00 0.00 0.00 0.00 0.00 0.00 0.00 0.01 0.02 0.04 0.04 0.03 0.04 0.04 0.04 0.04 0.04 0.03 0.03 0.04 0.06 0.06 0.07 0.07 0.07 0.07 0.08 0.07 0.08 0.07 0.06 0.05 0.04 0.03 0.02 0.03 0.02
0.00 0.00 0.00 0.00 0.00 0.00 0.00 0.00 0.00 0.00 0.00 0.00 0.00 0.00 0.01 0.01 0.01 0.01 0.02 0.02 0.02 0.03 0.03 0.03 0.04 0.04 0.05 0.05 0.05 0.05 0.06 0.07 0.08 0.09 0.09 0.09 0.08 0.07 0.07 0.05 0.03 0.02 0.02 0.02
0.00 0.00 0.00 0.00 0.00 0.00 0.00 0.00 0.00 0.00 0.00 0.00 0.00 0.00 0.00 0.00 0.00 0.00 0.01 0.01 0.02 0.02 0.02 0.02 0.03 0.04 0.04 0.05 0.05 0.06 0.08 0.09 0.10 0.12 0.13 0.13 0.13 0.11 0.08 0.04 0.02 0.02 0.02 0.01
MSLP
1009.96 1009.77 1009.63 1009.61 1009.74 1010.05 1010.49 1011.04 1011.62 1012.18 1012.65 1012.98 1013.16 1013.17 1013.05 1012.84 1012.57 1012.27 1012.00 1011.75 1011.55 1011.38 1011.23 1011.08 1010.93 1010.76 1010.58 1010.38 1010.18 1009.99 1009.82 1009.66 1009.53 1009.41 1009.29 1009.17 1009.01 1008.82 1008.58 1008.29 1007.96 1007.59 1007.21 1006.82
1010.68 1010.55 1010.43 1010.38 1010.43 1010.62 1010.93 1011.34 1011.80 1012.25 1012.65 1012.95 1013.10 1013.12 1013.00 1012.78 1012.49 1012.16 1011.82 1011.50 1011.22 1010.97 1010.74 1010.52 1010.31 1010.08 1009.84 1009.59 1009.33 1009.09 1008.87 1008.68 1008.52 1008.41 1008.31 1008.23 1008.13 1008.01 1007.85 1007.63 1007.36 1007.04 1006.68 1006.32
1011.36 1011.33 1011.27 1011.23 1011.24 1011.33 1011.52 1011.78 1012.09 1012.40 1012.67 1012.86 1012.93 1012.89 1012.72 1012.45 1012.11 1011.73 1011.33 1010.96 1010.61 1010.30 1010.02 1009.75 1009.50 1009.23 1008.96 1008.67 1008.39 1008.12 1007.87 1007.67 1007.51 1007.40 1007.33 1007.28 1007.24 1007.17 1007.07 1006.90 1006.68 1006.40 1006.07 1005.73
1011.95 1012.03 1012.06 1012.05 1012.06 1012.09 1012.17 1012.29 1012.44 1012.58 1012.69 1012.73 1012.67 1012.51 1012.26 1011.91 1011.50 1011.06 1010.62 1010.19 1009.80 1009.46 1009.15 1008.86 1008.59 1008.32 1008.04 1007.75 1007.46 1007.18 1006.93 1006.73 1006.57 1006.47 1006.42 1006.40 1006.38 1006.35 1006.28 1006.14 1005.94 1005.68 1005.38 1005.05
1012.41 1012.60 1012.71 1012.76 1012.78 1012.78 1012.78 1012.78 1012.77 1012.75 1012.69 1012.56 1012.36 1012.07 1011.70 1011.26 1010.78 1010.29 1009.80 1009.34 1008.93 1008.57 1008.26 1007.97 1007.71 1007.45 1007.18 1006.91 1006.64 1006.37 1006.14 1005.93 1005.78 1005.68 1005.63 1005.61 1005.60 1005.57 1005.50 1005.37 1005.17 1004.92 1004.61 1004.30
1012.72 1012.99 1013.18 1013.28 1013.32 1013.30 1013.24 1013.14 1013.01 1012.85 1012.63 1012.35 1012.01 1011.60 1011.13 1010.62 1010.08 1009.54 1009.02 1008.55 1008.13 1007.77 1007.47 1007.20 1006.96 1006.72 1006.49 1006.24 1005.99 1005.74 1005.52 1005.32 1005.16 1005.05 1004.98 1004.94 1004.90 1004.84 1004.75 1004.60 1004.39 1004.12 1003.82 1003.52
1012.89 1013.20 1013.43 1013.57 1013.62 1013.59 1013.49 1013.32 1013.10 1012.82 1012.48 1012.09 1011.64 1011.14 1010.60 1010.03 1009.46 1008.90 1008.38 1007.91 1007.50 1007.15 1006.86 1006.61 1006.39 1006.18 1005.97 1005.75 1005.52 1005.28 1005.06 1004.85 1004.68 1004.54 1004.43 1004.34 1004.26 1004.16 1004.03 1003.85 1003.62 1003.35 1003.06 1002.78
1012.93 1013.24 1013.47 1013.62 1013.67 1013.63 1013.49 1013.27 1012.98 1012.63 1012.21 1011.75 1011.24 1010.70 1010.13 1009.55 1008.97 1008.42 1007.91 1007.46 1007.06 1006.73 1006.45 1006.21 1006.00 1005.80 1005.60 1005.39 1005.16 1004.93 1004.69 1004.47 1004.26 1004.08 1003.92 1003.78 1003.64 1003.50 1003.33 1003.13 1002.90 1002.64 1002.38 1002.13
1012.88 1013.15 1013.36 1013.49 1013.51 1013.44 1013.27 1013.01 1012.67 1012.28 1011.83 1011.34 1010.82 1010.27 1009.71 1009.16 1008.61 1008.09 1007.61 1007.18 1006.80 1006.47 1006.19 1005.95 1005.73 1005.52 1005.30 1005.08 1004.84 1004.58 1004.32 1004.07 1003.82 1003.59 1003.38 1003.19 1003.01 1002.83 1002.64 1002.44 1002.23 1002.01 1001.80 1001.62
1012.79 1013.00 1013.15 1013.23 1013.21 1013.09 1012.88 1012.59 1012.22 1011.81 1011.35 1010.87 1010.37 1009.86 1009.35 1008.84 1008.35 1007.87 1007.43 1007.02 1006.64 1006.31 1006.01 1005.73 1005.48 1005.23 1004.97 1004.71 1004.43 1004.14 1003.85 1003.55 1003.26 1002.99 1002.74 1002.51 1002.31 1002.12 1001.94 1001.77 1001.61 1001.47 1001.34 1001.26
1012.69 1012.83 1012.92 1012.93 1012.85 1012.68 1012.42 1012.10 1011.71 1011.29 1010.85 1010.39 1009.94 1009.48 1009.03 1008.59 1008.15 1007.72 1007.31 1006.91 1006.52 1006.16 1005.81 1005.48 1005.16 1004.84 1004.52 1004.20 1003.86 1003.52 1003.18 1002.85 1002.53 1002.23 1001.96 1001.72 1001.52 1001.36 1001.22 1001.12 1001.05 1001.00 1000.99 1001.02
1012.62 1012.70 1012.73 1012.67 1012.53 1012.31 1012.00 1011.64 1011.24 1010.82 1010.39 1009.97 1009.56 1009.17 1008.78 1008.40 1008.01 1007.62 1007.22 1006.81 1006.39 1005.97 1005.55 1005.13 1004.72 1004.30 1003.90 1003.49 1003.09 1002.69 1002.31 1001.94 1001.60 1001.30 1001.03 1000.82 1000.65 1000.54 1000.49 1000.48 1000.51 1000.59 1000.71 1000.86
1012.57 1012.62 1012.60 1012.50 1012.31 1012.03 1011.69 1011.30 1010.89 1010.47 1010.06 1009.67 1009.31 1008.96 1008.62 1008.28 1007.93 1007.55 1007.14 1006.69 1006.22 1005.72 1005.20 1004.67 1004.14 1003.62 1003.11 1002.62 1002.14 1001.69 1001.27 1000.88 1000.54 1000.24 1000.01 999.84 999.74 999.71 999.74 999.85 1000.00 1000.21 1000.45 1000.72
1012.54 1012.58 1012.54 1012.41 1012.20 1011.89 1011.53 1011.12 1010.70 1010.29 1009.89 1009.53 1009.20 1008.88 1008.58 1008.26 1007.91 1007.52 1007.08 1006.57 1006.02 1005.42 1004.78 1004.13 1003.48 1002.84 1002.22 1001.64 1001.09 1000.59 1000.14 999.75 999.42 999.15 998.96 998.86 998.83 998.89 999.03 999.24 999.51 999.84 1000.19 1000.56
1012.51 1012.56 1012.53 1012.40 1012.18 1011.87 1011.50 1011.09 1010.67 1010.27 1009.89 1009.54 1009.23 1008.93 1008.64 1008.32 1007.96 1007.53 1007.03 1006.46 1005.81 1005.10 1004.34 1003.57 1002.80 1002.04 1001.32 1000.66 1000.05 999.51 999.05 998.66 998.35 998.12 997.99 997.94 998.00 998.14 998.37 998.68 999.05 999.47 999.91 1000.36
1012.45 1012.53 1012.52 1012.41 1012.20 1011.91 1011.55 1011.15 1010.75 1010.36 1010.00 1009.66 1009.36 1009.07 1008.77 1008.44 1008.04 1007.57 1007.01 1006.35 1005.60 1004.79 1003.92 1003.04 1002.15 1001.30 1000.50 999.77 999.12 998.55 998.08 997.70 997.42 997.24 997.16 997.18 997.29 997.51 997.81 998.19 998.64 999.12 999.62 1000.11
1012.34 1012.46 1012.48 1012.40 1012.22 1011.95 1011.61 1011.24 1010.86 1010.49 1010.14 1009.82 1009.52 1009.23 1008.92 1008.56 1008.13 1007.61 1006.98 1006.25 1005.42 1004.51 1003.55 1002.57 1001.61 1000.68 999.82 999.04 998.37 997.79 997.33 996.97 996.72 996.57 996.53 996.59 996.76 997.02 997.37 997.79 998.27 998.79 999.31 999.83
1012.20 1012.34 1012.39 1012.33 1012.18 1011.94 1011.63 1011.29 1010.93 1010.58 1010.25 1009.94 1009.65 1009.35 1009.02 1008.63 1008.17 1007.60 1006.92 1006.13 1005.23 1004.26 1003.24 1002.20 1001.18 1000.21 999.32 998.52 997.84 997.27 996.81 996.48 996.25 996.13 996.12 996.21 996.40 996.68 997.04 997.47 997.96 998.48 999.01 999.52
1012.03 1012.18 1012.24 1012.20 1012.07 1011.85 1011.57 1011.24 1010.91 1010.58 1010.26 1009.96 1009.67 1009.36 1009.02 1008.62 1008.12 1007.53 1006.81 1005.98 1005.05 1004.04 1002.98 1001.92 1000.88 999.89 998.99 998.20 997.53 996.97 996.54 996.22 996.02 995.92 995.92 996.01 996.19 996.46 996.81 997.22 997.69 998.19 998.71 999.21
1011.86 1012.01 1012.07 1012.03 1011.90 1011.69 1011.42 1011.11 1010.79 1010.47 1010.16 1009.87 1009.58 1009.27 1008.92 1008.50 1008.00 1007.38 1006.65 1005.81 1004.86 1003.84 1002.78 1001.72 1000.68 999.71 998.82 998.05 997.39 996.86 996.45 996.15 995.96 995.86 995.86 995.94 996.10 996.34 996.65 997.03 997.46 997.93 998.41 998.90
1011.74 1011.86 1011.90 1011.85 1011.71 1011.49 1011.22 1010.92 1010.60 1010.28 1009.98 1009.69 1009.41 1009.10 1008.75 1008.33 1007.82 1007.20 1006.47 1005.63 1004.69 1003.68 1002.63 1001.58 1000.57 999.62 998.76 998.01 997.38 996.88 996.48 996.20 996.01 995.91 995.89 995.95 996.08 996.28 996.54 996.87 997.25 997.67 998.12 998.58
1011.65 1011.76 1011.77 1011.70 1011.53 1011.30 1011.01 1010.70 1010.38 1010.07 1009.77 1009.49 1009.21 1008.90 1008.56 1008.15 1007.64 1007.03 1006.31 1005.48 1004.56 1003.57 1002.55 1001.53 1000.54 999.62 998.78 998.06 997.45 996.96 996.58 996.30 996.11 996.00 995.96 995.99 996.08 996.24 996.45 996.73 997.06 997.44 997.85 998.28
1011.61 1011.69 1011.68 1011.58 1011.39 1011.13 1010.83 1010.51 1010.19 1009.88 1009.59 1009.32 1009.05 1008.76 1008.43 1008.03 1007.54 1006.95 1006.24 1005.43 1004.53 1003.56 1002.56 1001.56 1000.59 999.69 998.87 998.16 997.56 997.08 996.70 996.42 996.22 996.10 996.04 996.05 996.11 996.23 996.40 996.63 996.91 997.24 997.61 998.02
1011.57 1011.64 1011.61 1011.48 1011.27 1011.00 1010.69 1010.36 1010.04 1009.75 1009.47 1009.22 1008.97 1008.70 1008.40 1008.02 1007.56 1006.98 1006.30 1005.51 1004.62 1003.67 1002.68 1001.69 1000.73 999.84 999.02 998.31 997.71 997.22 996.84 996.55 996.35 996.22 996.15 996.13 996.17 996.26 996.40 996.59 996.84 997.13 997.47 997.84
1011.48 1011.55 1011.51 1011.37 1011.15 1010.87 1010.56 1010.25 1009.95 1009.67 1009.43 1009.21 1009.00 1008.77 1008.50 1008.15 1007.72 1007.17 1006.51 1005.74 1004.87 1003.93 1002.95 1001.96 1000.99 1000.09 999.26 998.54 997.93 997.43 997.03 996.73 996.52 996.38 996.31 996.29 996.31 996.39 996.51 996.68 996.90 997.16 997.46 997.80
1011.30 1011.38 1011.34 1011.20 1010.98 1010.72 1010.43 1010.14 1009.88 1009.65 1009.45 1009.28 1009.12 1008.94 1008.71 1008.41 1008.02 1007.51 1006.87 1006.12 1005.27 1004.34 1003.36 1002.37 1001.39 1000.47 999.63 998.89 998.26 997.74 997.33 997.02 996.80 996.66 996.58 996.56 996.59 996.67 996.79 996.94 997.15 997.39 997.66 997.98
1011.01 1011.10 1011.08 1010.95 1010.76 1010.52 1010.27 1010.03 1009.82 1009.64 1009.51 1009.40 1009.30 1009.18 1009.02 1008.77 1008.42 1007.95 1007.36 1006.64 1005.81 1004.90 1003.93 1002.94 1001.96 1001.03 1000.17 999.41 998.76 998.23 997.80 997.48 997.26 997.12 997.05 997.04 997.08 997.16 997.28 997.44 997.64 997.86 998.12 998.41
Thickness
5763 5774 5775 5768 5763 5757 5741 5727 5711 5706 5701 5693 5687 5681 5675 5670 5663 5655 5649 5644 5638 5629 5621 5614 5607 5601 5596 5591 5588 5585 5582 5580 5578 5579 5579 5580 5582 5584 5588 5592 5598 5603 5610 5618
5754 5768 5769 5760 5752 5741 5728 5718 5708 5701 5694 5691 5684 5675 5666 5658 5650 5642 5636 5629 5620 5610 5602 5594 5587 5581 5576 5571 5568 5565 5563 5561 5561 5561 5560 5560 5562 5564 5569 5573 5578 5583 5590 5598
5739 5759 5756 5732 5726 5721 5713 5709 5698 5686 5685 5681 5669 5660 5653 5646 5637 5630 5621 5610 5600 5591 5582 5575 5569 5564 5560 5557 5556 5553 5552 5551 5550 5549 5549 5549 5549 5550 5551 5552 5555 5561 5568 5577
5738 5740 5713 5712 5726 5716 5704 5700 5696 5688 5677 5667 5658 5652 5646 5638 5628 5614 5602 5592 5583 5575 5568 5563 5559 5556 5553 5551 5550 5549 5548 5547 5546 5545 5544 5543 5542 5540 5539 5539 5540 5543 5549 5557
5728 5721 5716 5710 5711 5701 5688 5683 5684 5670 5661 5655 5649 5639 5635 5628 5612 5598 5588 5579 5571 5564 5560 5557 5554 5552 5551 5549 5547 5546 5545 5543 5543 5542 5540 5539 5537 5535 5533 5531 5531 5534 5538 5544
5723 5706 5698 5695 5703 5703 5688 5674 5667 5658 5648 5641 5632 5617 5615 5610 5597 5587 5577 5568 5562 5559 5556 5554 5552 5549 5546 5544 5542 5541 5540 5539 5538 5537 5536 5535 5534 5532 5530 5528 5528 5529 5532 5536
5714 5702 5705 5698 5700 5691 5663 5657 5661 5653 5642 5630 5617 5606 5602 5596 5586 5575 5568 5562 5558 5555 5552 5549 5547 5544 5540 5538 5536 5535 5534 5533 5532 5531 5530 5530 5530 5529 5527 5526 5525 5526 5528 5531
5702 5691 5683 5695 5686 5667 5658 5660 5652 5641 5631 5620 5610 5602 5593 5584 5575 5567 5562 5558 5554 5550 5547 5544 5541 5537 5533 5530 5528 5526 5525 5524 5524 5523 5523 5526 5526 5525 5524 5523 5523 5524 5526 5529
5697 5690 5696 5693 5680 5673 5664 5650 5641 5631 5623 5612 5601 5592 5584 5575 5569 5563 5557 5553 5549 5544 5540 5536 5531 5526 5521 5519 5516 5514 5513 5514 5514 5515 5516 5517 5519 5520 5520 5521 5521 5524 5525 5527
5697 5697 5694 5685 5677 5667 5656 5644 5635 5626 5615 5604 5593 5584 5575 5569 5562 5557 5552 5546 5541 5535 5529 5524 5518 5513 5509 5506 5504 5502 5502 5503 5505 5507 5509 5512 5513 5515 5516 5518 5520 5522 5524 5525
5690 5688 5681 5677 5666 5656 5649 5640 5629 5619 5608 5596 5586 5576 5568 5561 5555 5549 5543 5537 5529 5521 5515 5511 5507 5502 5498 5495 5493 5492 5493 5494 5497 5499 5502 5505 5508 5511 5514 5516 5518 5519 5521 5523
5676 5676 5666 5661 5657 5651 5640 5630 5622 5612 5601 5591 5579 5569 5561 5554 5547 5540 5533 5525 5518 5510 5505 5500 5495 5492 5489 5486 5484 5483 5484 5486 5488 5491 5495 5499 5503 5508 5511 5513 5515 5516 5518 5520
5682 5676 5667 5660 5653 5644 5633 5625 5616 5604 5593 5584 5574 5563 5554 5546 5538 5530 5521 5514 5506 5500 5494 5490 5487 5484 5482 5480 5478 5477 5478 5480 5481 5485 5489 5493 5497 5503 5507 5509 5511 5512 5514 5517
5680 5670 5658 5652 5644 5637 5628 5619 5610 5599 5588 5577 5566 5556 5547 5538 5529 5520 5511 5504 5497 5492 5487 5484 5481 5479 5477 5474 5473 5474 5475 5477 5479 5482 5485 5489 5494 5499 5504 5508 5511 5514 5512 5513
5673 5663 5653 5647 5640 5631 5622 5613 5602 5593 5582 5571 5560 5549 5539 5530 5521 5513 5505 5498 5491 5487 5484 5481 5479 5477 5474 5472 5472 5473 5475 5477 5479 5481 5484 5488 5492 5496 5502 5507 5511 5514 5516 5513
5667 5659 5650 5641 5632 5624 5615 5605 5595 5585 5575 5564 5553 5543 5533 5524 5516 5508 5500 5492 5487 5484 5482 5480 5478 5476 5474 5473 5473 5474 5476 5479 5480 5482 5485 5489 5492 5497 5502 5506 5510 5513 5516 5517
5658 5649 5641 5632 5625 5617 5608 5598 5588 5579 5569 5558 5548 5539 5531 5523 5515 5506 5499 5492 5487 5485 5483 5480 5478 5477 5476 5477 5476 5477 5479 5482 5484 5486 5489 5492 5496 5500 5504 5508 5511 5515 5519 5520
5657 5647 5637 5627 5619 5611 5603 5594 5584 5574 5563 5553 5545 5537 5529 5521 5512 5505 5500 5496 5493 5491 5488 5485 5482 5481 5482 5482 5482 5483 5484 5487 5490 5492 5495 5497 5501 5504 5507 5511 5514 5518 5520 5520
5653 5644 5635 5625 5616 5607 5598 5590 5581 5571 5562 5552 5543 5535 5527 5520 5513 5507 5504 5500 5498 5496 5493 5491 5488 5489 5490 5491 5489 5492 5494 5496 5499 5501 5503 5504 5507 5510 5512 5516 5519 5523 5525 5527
5648 5640 5631 5621 5613 5603 5595 5587 5578 5570 5560 5550 5542 5536 5530 5524 5517 5513 5509 5506 5502 5498 5496 5496 5498 5499 5501 5500 5499 5503 5505 5507 5508 5509 5511 5513 5515 5516 5519 5522 5525 5528 5532 5535
5642 5634 5625 5617 5609 5601 5593 5584 5577 5568 5559 5549 5542 5537 5531 5526 5521 5517 5515 5514 5511 5508 5505 5507 5509 5509 5510 5508 5510 5514 5515 5516 5517 5517 5519 5520 5521 5522 5525 5529 5533 5536 5540 5544
5636 5627 5620 5613 5605 5598 5591 5584 5576 5567 5558 5550 5544 5539 5534 5530 5526 5522 5520 5517 5516 5514 5515 5519 5519 5517 5517 5519 5525 5526 5526 5526 5527 5528 5528 5529 5530 5532 5535 5538 5542 5546 5550 5554
5630 5622 5615 5609 5602 5596 5590 5584 5575 5566 5558 5551 5546 5541 5537 5532 5527 5525 5526 5525 5524 5523 5526 5529 5526 5527 5529 5536 5539 5540 5540 5540 5540 5541 5542 5543 5545 5547 5549 5552 5555 5559 5562 5566
5625 5618 5612 5607 5600 5595 5589 5583 5575 5566 5558 5551 5546 5542 5539 5536 5533 5530 5528 5530 5531 5531 5536 5537 5537 5539 5544 5551 5553 5554 5554 5555 5555 5556 5558 5559 5561 5563 5565 5567 5569 5572 5574 5576
5621 5614 5610 5603 5599 5594 5588 5582 5575 5567 5559 5552 5547 5543 5540 5537 5533 5534 5534 5536 5538 5540 5544 5547 5548 5550 5556 5561 5564 5566 5567 5568 5569 5569 5571 5572 5574 5576 5577 5579 5580 5582 5583 5585
5619 5613 5608 5601 5597 5591 5586 5578 5571 5564 5558 5551 5547 5543 5541 5538 5537 5537 5538 5540 5543 5545 5549 5552 5556 5559 5563 5567 5570 5573 5576 5578 5579 5580 5581 5582 5583 5585 5586 5587 5589 5590 5592 5594
5618 5614 5607 5601 5596 5588 5580 5574 5568 5561 5555 5547 5544 5541 5538 5537 5536 5536 5538 5540 5543 5546 5550 5554 5557 5560 5565 5569 5573 5575 5579 5582 5585 5587 5588 5589 5590 5591 5592 5594 5596 5597 5598 5599